Temp
76 86 93 89 73 76 72 79 87 82 82 89 89 87 86 91 84 77 99 97 96 94 90 82 74 75 75 75 76 76 76 76 77 76 76 76 76 75 76 76 76 77 78 79 79 79 79 77 75
90 91 90 83 70 68 74 85 82 85 89 87 86 86 85 83 94 93 94 96 97 96 92 87 73 74 75 75 75 75 76 77 76 76 76 76 76 76 76 76 76 77 78 79 79 79 78 75 74
83 92 82 76 72 67 73 86 84 88 87 86 86 90 89 85 93 95 98 97 97 97 94 88 73 73 74 74 75 75 75 76 76 76 76 76 76 76 77 76 75 77 78 79 79 78 75 73 72
87 85 82 71 70 78 80 86 86 85 86 88 89 82 90 95 92 97 98 97 95 96 95 74 72 73 74 74 74 75 74 74 75 75 76 76 77 77 76 76 75 77 77 78 78 77 73 72 71
89 84 70 70 71 79 86 87 86 82 85 83 86 82 85 94 98 97 97 96 93 93 92 82 71 72 73 74 74 74 75 74 74 75 75 76 77 77 76 75 75 76 77 77 76 74 72 71 71
77 80 67 66 72 81 85 88 86 83 85 86 84 83 86 95 95 96 97 94 93 91 89 85 74 73 72 73 73 73 73 73 73 73 75 75 75 75 75 75 75 75 71 73 74 72 71 71 71
74 73 67 70 72 77 83 86 82 84 82 84 90 81 87 93 93 94 96 94 91 90 87 85 81 77 71 71 71 71 72 73 73 72 72 74 73 73 74 74 73 73 73 72 73 71 71 71 69
79 75 69 72 69 72 84 82 85 83 81 92 89 79 80 88 90 90 94 92 89 87 85 84 83 81 80 79 70 71 71 72 72 72 70 71 71 72 71 71 71 71 71 73 72 72 71 68 68
83 68 64 70 72 75 81 79 86 88 84 86 87 87 90 89 91 88 89 88 87 85 84 82 79 82 81 79 79 71 71 71 70 71 69 70 81 77 73 72 70 70 70 71 71 70 68 67 67
74 66 68 78 80 77 78 80 80 80 79 79 83 88 91 90 89 87 87 86 85 84 84 84 77 77 78 83 79 80 80 80 80 81 79 82 79 79 77 72 68 69 69 69 69 68 67 68 76
73 65 75 78 81 79 77 77 82 77 73 79 79 84 88 89 88 87 86 89 88 88 87 85 82 79 79 79 82 83 82 80 80 79 80 80 77 74 77 71 70 70 70 70 69 69 70 77 76
68 73 75 77 79 78 73 78 75 77 77 84 85 86 87 87 86 87 88 90 90 90 88 86 85 77 82 87 84 84 79 79 79 78 78 76 75 73 74 76 75 74 73 71 67 67 71 75 76
70 73 75 77 77 76 76 73 74 75 82 85 85 85 84 85 87 89 91 93 92 90 89 85 84 80 84 80 76 78 78 76 74 76 76 76 74 73 75 75 76 75 73 69 65 67 71 74 76
73 74 72 74 75 76 71 72 75 77 83 82 82 82 83 84 87 88 90 91 91 91 91 86 83 81 82 79 75 73 75 73 72 73 76 76 76 75 75 73 73 73 72 70 65 66 68 73 75
70 64 68 71 72 71 75 67 68 79 82 80 81 82 83 83 86 87 90 91 92 93 93 86 81 82 80 80 79 74 75 70 71 72 77 76 76 76 75 74 72 73 72 70 65 65 66 70 76
61 62 56 70 73 73 72 60 74 81 79 78 80 81 82 84 86 88 90 93 94 95 92 88 83 81 80 82 82 78 71 69 74 75 76 75 75 76 75 73 71 71 69 68 64 64 64 66 72
60 53 57 63 70 68 68 63 74 79 77 76 77 80 81 83 86 89 92 93 94 95 92 88 82 79 79 81 81 81 74 71 75 75 72 72 72 73 71 70 68 68 67 67 65 63 63 66 70
53 56 60 59 67 67 63 63 69 74 75 73 76 79 80 82 85 89 91 93 95 94 91 88 81 79 79 80 77 77 73 73 72 71 70 71 70 70 68 67 66 66 67 66 65 63 63 68 71
58 57 57 62 68 62 61 62 66 70 72 73 75 77 79 80 87 89 90 91 92 91 89 86 79 78 79 74 71 73 68 71 69 69 68 68 68 68 67 66 66 64 66 65 65 63 62 62 70
55 53 54 61 65 63 61 61 67 69 70 74 75 76 78 80 84 86 88 90 88 87 86 85 80 79 76 75 77 76 74 74 74 73 69 68 65 65 64 64 64 64 64 63 62 63 62 63 69
54 52 53 55 60 63 61 59 63 71 75 75 77 79 79 80 81 84 86 88 86 85 84 84 81 80 76 77 79 77 75 73 70 68 70 73 71 71 68 68 64 62 64 62 61 62 63 61 67
50 61 57 54 51 47 64 47 61 68 70 72 74 75 77 79 82 84 85 86 86 84 84 84 82 80 78 79 78 74 72 70 72 73 75 73 72 71 70 67 64 63 62 61 61 63 63 64 66
53 61 55 55 52 51 52 51 58 68 64 67 70 73 76 80 82 82 84 87 90 86 83 82 80 79 78 78 77 75 74 76 76 74 69 69 68 67 67 63 63 62 61 61 61 61 62 63 68
61 55 54 53 52 42 50 51 55 62 61 62 67 69 72 76 79 82 85 86 89 88 83 80 77 78 75 77 76 75 74 74 72 69 66 65 65 63 61 60 61 61 60 60 60 61 62 63 67
56 49 39 38 37 37 56 52 57 62 64 63 63 67 69 69 70 75 80 83 85 85 81 77 73 73 73 75 76 75 75 73 72 69 67 62 61 60 58 58 58 59 60 60 60 61 62 63 65
51 50 40 32 36 41 53 45 55 66 63 66 68 68 69 68 67 68 74 80 83 84 80 71 68 68 69 74 77 75 74 74 73 70 65 63 62 62 60 59 58 58 59 59 59 60 61 62 65
52 45 56 44 47 41 48 57 63 65 61 64 66 66 65 65 63 62 65 79 80 80 67 65 65 66 68 76 76 73 73 71 71 70 68 65 66 64 61 60 59 58 58 59 59 58 58 61 64
56 56 41 43 32 33 46 51 51 51 56 62 63 62 62 63 59 55 61 65 77 70 66 63 65 66 69 76 74 71 71 70 71 71 69 67 67 65 64 60 61 58 58 58 59 58 59 59 59
49 45 46 47 45 37 37 44 56 55 59 60 61 61 60 58 55 49 51 53 66 67 65 62 64 65 67 73 70 69 68 68 69 67 67 69 69 69 67 63 60 59 59 58 58 58 58 58 58
52 49 49 39 41 46 42 45 60 61 61 61 60 60 58 56 52 46 46 48 60 63 63 63 63 65 66 70 67 67 67 67 66 66 68 69 69 68 65 66 61 59 59 58 58 58 59 58 58
MSLP
1011.80 1011.06 1009.76 1008.51 1007.37 1004.05 1001.22 999.21 998.12 998.76 999.37 999.67 1000.27 999.99 999.75 998.95 999.12 1000.27 1001.50 1002.23 1002.97 1003.90 1005.13 1006.47 1007.06 1007.34 1007.74 1008.08 1008.41 1008.66 1008.92 1009.26 1009.52 1009.79 1010.27 1010.73 1011.19 1011.17 1011.60 1011.87 1012.14 1012.38 1012.63 1012.93 1013.46 1013.71 1014.01 1014.47 1014.78
1010.37 1009.75 1008.97 1007.33 1005.25 1002.06 999.71 998.65 997.97 999.11 999.19 1000.52 1000.98 1000.78 1000.60 1000.00 999.93 1000.97 1001.66 1002.61 1003.23 1003.89 1004.95 1005.90 1007.07 1007.46 1007.78 1008.12 1008.46 1008.66 1008.94 1009.28 1009.63 1009.85 1010.27 1010.68 1011.22 1011.46 1011.66 1011.97 1012.31 1012.53 1012.85 1013.15 1013.45 1013.90 1014.21 1014.71 1015.10
1010.28 1009.20 1007.84 1005.82 1003.69 1001.19 999.37 997.94 998.36 999.15 1000.12 1000.72 1000.48 1000.58 1000.19 1000.29 1000.54 1000.91 1001.67 1002.76 1003.23 1003.72 1004.57 1005.55 1006.96 1007.50 1007.78 1008.15 1008.41 1008.65 1008.89 1009.18 1009.55 1009.91 1010.46 1010.81 1011.20 1011.51 1011.83 1012.09 1012.40 1012.71 1012.94 1013.24 1013.64 1014.01 1014.65 1015.06 1015.40
1008.74 1008.61 1007.62 1004.51 1001.85 1000.20 999.52 998.71 998.70 999.59 1000.57 1000.92 1000.41 1000.38 1000.56 1000.85 1001.32 1001.49 1002.15 1002.99 1003.43 1003.88 1004.51 1006.23 1006.93 1007.51 1007.78 1008.15 1008.44 1008.73 1009.04 1009.43 1009.79 1009.99 1010.29 1010.65 1011.05 1011.54 1012.00 1012.27 1012.78 1012.88 1013.11 1013.31 1013.74 1014.15 1014.74 1015.30 1015.63
1007.86 1006.45 1005.30 1003.05 1001.63 1000.64 999.54 999.66 999.65 1000.08 1000.22 1000.86 1001.03 1000.68 1000.55 1001.10 1001.62 1001.94 1002.42 1003.19 1003.56 1004.26 1004.76 1006.20 1007.05 1007.48 1007.85 1008.18 1008.47 1008.71 1009.07 1009.52 1009.83 1010.13 1010.38 1010.71 1011.01 1011.59 1011.96 1012.33 1012.68 1012.87 1013.23 1013.71 1014.09 1014.55 1014.87 1015.47 1015.99
1007.05 1006.00 1003.79 1001.71 1000.60 999.86 999.56 999.46 1000.04 1000.45 1000.50 1000.68 1000.94 1001.00 1000.92 1001.18 1001.51 1002.00 1002.58 1003.33 1003.88 1004.54 1005.20 1005.90 1007.17 1007.61 1007.96 1008.27 1008.59 1008.87 1009.19 1009.51 1009.89 1010.17 1010.34 1010.74 1011.17 1011.51 1011.90 1012.45 1012.79 1013.18 1013.73 1014.22 1014.61 1014.94 1015.29 1015.69 1016.00
1006.16 1004.79 1002.95 1001.61 1000.44 999.53 999.13 1000.08 1000.64 1000.10 1000.59 1000.42 1000.42 1000.46 1001.22 1000.99 1002.20 1002.35 1002.59 1003.39 1004.14 1004.73 1005.46 1005.97 1006.83 1007.58 1008.12 1008.38 1008.74 1009.04 1009.33 1009.51 1009.89 1010.16 1010.44 1010.56 1011.11 1011.55 1012.14 1012.48 1013.04 1013.46 1014.08 1014.75 1015.10 1015.40 1015.72 1016.05 1016.37
1005.88 1004.95 1002.87 1001.52 1000.79 999.87 999.76 1000.51 1000.77 1000.68 1000.54 1000.64 1000.93 1000.78 1001.19 1001.80 1002.77 1003.03 1002.87 1003.42 1004.29 1004.93 1005.67 1006.11 1006.53 1007.20 1007.69 1008.10 1008.80 1009.15 1009.53 1009.75 1009.90 1010.22 1010.49 1010.71 1011.19 1011.64 1012.20 1012.81 1013.29 1013.65 1013.51 1014.77 1015.12 1015.58 1015.84 1016.39 1016.74
1005.79 1004.59 1002.27 1001.29 1000.64 1000.04 1000.67 1000.69 1000.58 1001.02 1000.97 1000.89 1001.30 1001.20 1001.10 1002.15 1002.58 1002.89 1002.84 1003.40 1004.17 1004.99 1005.67 1006.37 1006.71 1006.88 1007.41 1008.04 1008.37 1009.17 1009.48 1009.80 1010.09 1010.31 1010.46 1010.74 1010.96 1011.73 1012.32 1012.79 1013.22 1013.50 1013.54 1014.17 1014.72 1015.41 1016.17 1016.73 1017.06
1004.96 1003.39 1002.22 1001.71 1000.66 1000.57 1000.92 1001.09 1001.10 1001.17 1001.00 1001.18 1001.19 1001.23 1001.34 1002.08 1002.21 1002.43 1002.48 1002.83 1003.60 1004.27 1005.11 1005.80 1006.78 1007.01 1007.46 1007.57 1008.09 1008.52 1008.83 1009.21 1009.55 1009.69 1010.14 1010.27 1010.87 1011.50 1012.09 1012.81 1013.08 1013.53 1013.93 1014.21 1014.72 1015.20 1015.93 1016.55 1016.82
1004.23 1002.80 1002.22 1001.40 1001.28 1001.93 1001.69 1001.48 1001.57 1001.24 1000.83 1000.92 1000.81 1001.01 1001.07 1001.32 1001.82 1001.90 1002.30 1001.98 1002.32 1003.33 1004.31 1005.07 1006.10 1006.80 1007.16 1007.52 1007.61 1007.79 1008.15 1008.75 1009.15 1009.27 1009.60 1009.90 1010.71 1011.53 1011.95 1012.77 1013.23 1013.62 1013.78 1014.17 1014.71 1015.58 1015.95 1015.85 1016.40
1003.79 1003.27 1002.73 1002.10 1001.83 1001.98 1002.18 1002.19 1001.46 1001.15 1000.87 1001.13 1001.03 1000.98 1000.91 1000.81 1001.30 1001.49 1001.38 1001.43 1001.56 1002.15 1003.29 1004.53 1005.37 1006.53 1006.42 1006.59 1007.22 1007.46 1008.24 1008.63 1009.06 1009.26 1009.58 1009.93 1010.64 1011.16 1011.68 1011.86 1012.53 1013.00 1013.63 1014.28 1014.77 1015.22 1015.51 1015.62 1016.11
1003.46 1003.27 1002.97 1002.67 1002.21 1002.38 1002.34 1001.80 1001.32 1000.75 1001.03 1000.97 1000.78 1000.76 1000.79 1000.67 1000.69 1000.79 1000.78 1000.67 1000.88 1001.28 1002.17 1003.82 1004.97 1005.99 1005.95 1006.51 1007.41 1007.81 1008.24 1008.79 1009.11 1009.24 1009.63 1009.90 1010.44 1010.98 1011.21 1011.60 1012.02 1012.51 1013.48 1014.25 1014.61 1015.03 1015.19 1015.42 1015.88
1003.69 1003.08 1003.02 1002.89 1002.25 1001.91 1001.91 1001.34 1001.14 1000.34 1000.32 1000.15 1000.14 1000.08 1000.21 1000.20 1000.15 1000.15 999.96 999.99 1000.24 1000.57 1001.30 1003.03 1004.41 1005.37 1005.75 1006.43 1007.19 1007.89 1008.32 1008.56 1009.12 1009.30 1009.37 1009.72 1009.97 1010.51 1010.85 1011.40 1011.87 1012.46 1013.15 1013.85 1014.38 1015.03 1014.92 1015.25 1015.58
1004.60 1004.01 1003.32 1002.54 1002.19 1001.61 1001.61 1000.62 1000.05 999.70 999.43 999.16 999.15 999.21 999.36 999.58 999.62 999.38 999.09 999.01 999.47 1000.00 1000.51 1002.07 1003.82 1004.69 1005.34 1005.83 1006.44 1007.58 1008.05 1008.45 1009.05 1009.27 1009.00 1009.49 1009.78 1010.07 1010.54 1011.07 1011.81 1012.27 1012.89 1013.58 1014.35 1015.00 1015.19 1015.09 1015.19
1005.35 1004.59 1002.83 1001.47 1000.91 1000.69 1000.95 999.43 998.92 998.37 998.63 998.08 998.37 998.44 998.37 998.35 998.43 998.61 998.44 998.40 998.79 999.14 999.85 1001.22 1003.11 1004.17 1004.86 1005.06 1005.57 1006.74 1007.96 1008.41 1008.55 1008.71 1008.89 1009.30 1009.77 1009.97 1010.39 1011.04 1011.76 1012.13 1012.77 1013.46 1014.33 1014.88 1015.44 1015.11 1014.84
1004.48 1003.17 1001.91 1000.99 1001.14 1000.95 1000.41 999.09 998.61 998.57 998.26 998.09 997.96 997.80 997.53 997.33 997.28 997.40 997.47 997.66 998.06 998.48 999.36 1000.61 1002.49 1003.75 1004.53 1004.79 1005.38 1006.07 1007.18 1008.02 1008.13 1008.39 1008.85 1009.28 1009.86 1010.14 1010.60 1011.10 1011.76 1012.21 1012.80 1013.44 1014.10 1014.67 1015.29 1015.27 1014.76
1003.37 1002.56 1001.61 1001.03 1000.58 1000.48 1000.36 999.56 999.34 998.91 998.51 997.99 997.61 997.21 996.94 996.78 996.39 996.42 996.69 996.81 997.30 997.89 998.89 1000.31 1002.08 1003.38 1004.19 1004.59 1005.67 1006.35 1007.00 1007.55 1008.20 1008.60 1008.91 1009.20 1009.80 1010.24 1010.69 1011.22 1011.74 1012.22 1012.75 1013.41 1014.11 1014.56 1015.34 1015.16 1014.90
1004.05 1003.40 1002.04 1001.47 1001.10 1001.35 1000.42 999.45 999.03 998.60 997.64 996.96 996.53 996.36 996.28 996.32 996.07 996.23 996.29 996.42 996.71 997.77 998.59 999.89 1001.60 1002.85 1003.62 1004.45 1005.56 1005.93 1006.61 1007.34 1008.10 1008.56 1008.75 1009.19 1009.59 1010.00 1010.52 1010.99 1011.47 1012.05 1012.21 1013.03 1013.71 1014.49 1015.08 1015.13 1014.67
1004.56 1003.74 1002.70 1002.01 1001.44 1001.07 1000.08 998.76 998.09 997.28 996.59 995.93 995.57 995.53 995.53 995.69 995.57 995.73 995.86 995.88 996.83 997.81 998.54 999.60 1001.12 1002.22 1003.29 1004.36 1004.59 1005.33 1005.89 1006.64 1007.33 1007.89 1008.29 1008.89 1009.49 1009.90 1010.31 1010.74 1011.22 1011.62 1012.08 1012.87 1013.53 1013.99 1014.79 1014.83 1014.36
1004.12 1003.73 1002.96 1002.18 1001.61 1000.89 999.77 997.73 996.49 995.41 994.90 994.98 994.80 994.80 995.15 995.05 995.12 995.17 995.39 995.51 996.49 997.60 998.38 999.27 1000.46 1001.65 1002.97 1003.59 1003.98 1004.83 1005.68 1006.50 1007.13 1007.56 1007.77 1007.97 1008.37 1008.89 1009.58 1010.15 1010.89 1011.32 1011.53 1012.36 1012.94 1013.35 1014.00 1014.41 1014.43
1003.35 1003.29 1003.04 1002.97 1002.41 1000.47 998.81 997.18 996.01 995.01 994.40 994.69 994.59 994.76 994.70 994.89 994.96 994.97 994.99 995.11 995.64 997.12 998.05 999.10 1000.01 1001.21 1002.39 1002.98 1003.39 1003.96 1004.88 1005.59 1006.23 1006.53 1006.83 1007.47 1008.12 1008.46 1008.84 1009.56 1010.29 1010.96 1011.50 1011.82 1012.49 1012.85 1013.36 1013.87 1014.03
1003.65 1003.35 1003.66 1003.23 1002.27 1001.14 999.73 998.04 995.80 994.33 994.69 994.87 995.04 995.27 995.00 994.60 994.59 994.79 994.78 994.80 994.91 996.00 997.52 998.70 999.85 1000.87 1001.79 1002.56 1003.05 1003.72 1004.38 1004.81 1005.46 1006.12 1006.93 1007.62 1008.26 1008.65 1008.95 1009.39 1009.70 1010.32 1010.72 1010.92 1011.86 1012.59 1013.10 1013.72 1013.52
1003.87 1004.01 1003.97 1003.53 1002.28 1000.51 998.98 998.09 995.33 994.13 995.42 996.23 996.37 996.54 996.41 995.77 995.31 994.79 994.46 994.44 994.29 994.82 996.89 998.63 999.83 1000.45 1001.79 1002.39 1002.84 1003.31 1003.89 1004.43 1005.13 1006.05 1006.97 1007.70 1008.32 1008.65 1009.04 1009.19 1009.15 1009.49 1010.11 1010.67 1011.10 1011.97 1012.86 1013.45 1013.34
1003.80 1003.96 1003.10 1002.25 1001.44 999.94 997.79 996.97 995.45 995.84 996.44 997.09 997.39 997.52 997.69 997.88 997.53 996.54 995.58 994.97 994.64 994.71 996.80 998.61 999.84 1000.45 1001.56 1002.29 1002.48 1003.15 1003.66 1004.48 1004.83 1005.82 1006.84 1007.66 1008.22 1008.63 1009.04 1009.27 1009.45 1009.37 1009.83 1010.39 1010.97 1011.63 1012.57 1013.16 1013.16
1003.08 1003.07 1002.61 1001.29 1000.29 999.30 997.90 996.50 995.73 996.28 997.50 998.05 998.26 998.51 998.66 999.17 999.56 998.80 997.31 995.69 995.02 995.33 997.08 999.14 1000.40 1001.02 1001.78 1002.18 1002.19 1002.98 1003.59 1004.27 1004.69 1005.63 1006.83 1007.34 1007.91 1008.41 1008.93 1009.37 1009.62 1009.92 1010.09 1010.52 1011.04 1011.31 1012.13 1012.74 1012.95
1002.61 1002.40 1002.33 1002.11 1001.17 999.90 998.08 995.97 996.00 996.74 998.06 998.37 998.31 998.86 999.36 1000.00 1000.10 999.94 998.60 996.16 996.18 996.63 998.83 1000.06 1001.05 1001.49 1002.00 1001.63 1002.07 1003.02 1003.56 1004.22 1004.75 1005.52 1006.47 1007.11 1007.58 1008.18 1008.71 1009.22 1009.76 1010.14 1010.45 1010.72 1010.97 1011.54 1012.02 1012.40 1013.02
1002.09 1002.67 1002.74 1002.65 1001.32 999.52 997.27 995.87 995.62 997.77 998.16 998.31 998.60 999.50 1000.23 1000.81 1001.39 1001.34 1000.52 999.27 997.73 998.51 999.89 1000.85 1001.48 1001.63 1002.06 1001.55 1002.43 1003.38 1003.67 1004.35 1004.79 1005.43 1005.98 1006.65 1007.14 1007.75 1008.37 1009.05 1009.68 1010.25 1010.59 1010.96 1011.35 1011.93 1012.36 1012.93 1013.45
1002.48 1002.67 1003.01 1002.41 1001.55 999.86 998.05 997.02 997.40 998.04 998.28 998.63 999.37 1000.31 1001.22 1002.07 1002.92 1003.20 1002.74 1001.54 999.73 999.98 1000.63 1001.30 1001.74 1001.91 1002.25 1002.08 1003.01 1003.56 1003.97 1004.50 1005.04 1005.64 1006.14 1006.44 1006.79 1007.30 1007.89 1008.70 1009.44 1010.07 1010.50 1011.07 1011.53 1012.12 1012.57 1013.04 1013.52
1002.41 1002.02 1002.13 1001.96 1001.06 1000.36 999.84 998.40 998.27 998.22 998.61 999.13 1000.07 1001.09 1002.40 1003.34 1004.24 1004.60 1004.71 1003.92 1001.85 1001.45 1001.68 1001.62 1001.73 1002.30 1002.70 1002.80 1003.51 1003.98 1004.26 1004.61 1005.21 1005.66 1006.14 1006.55 1006.83 1007.39 1008.00 1008.37 1009.19 1009.83 1010.35 1010.86 1011.38 1011.87 1012.30 1012.71 1013.24
Wind_Speed
10 12 10 7 10 10 17 18 4 5 6 3 5 7 8 16 3 2 7 11 13 13 15 15 10 10 10 10 9 9 13 15 16 16 15 16 14 13 13 13 13 14 15 17 16 16 16 15 14
15 14 8 8 11 16 14 18 9 9 4 4 5 7 11 11 2 7 8 8 15 14 14 14 11 10 10 10 9 10 13 15 16 16 15 15 15 14 16 15 13 14 16 16 17 17 17 16 13
16 12 10 8 17 19 17 13 5 7 4 8 7 5 10 6 2 3 12 12 14 13 14 14 13 11 11 10 10 10 12 15 16 16 15 15 16 15 16 17 13 15 16 16 17 17 16 14 12
10 9 9 15 22 19 21 17 1 7 6 8 7 5 3 4 1 4 15 13 13 12 11 19 14 12 12 11 10 10 10 10 12 15 17 17 19 19 16 15 14 15 16 16 17 16 17 13 14
12 8 13 19 24 25 19 11 7 10 10 5 5 11 8 8 7 3 13 12 13 11 10 13 11 12 11 11 10 10 10 10 11 14 16 17 16 16 14 15 15 16 16 16 15 15 17 15 13
11 13 16 18 24 24 19 11 13 13 14 13 13 12 9 1 2 7 11 13 11 11 10 12 12 10 10 9 9 9 9 9 12 13 14 16 13 14 15 16 14 11 3 4 12 16 16 16 15
18 15 20 25 23 21 14 10 18 19 17 20 18 15 12 5 6 3 8 13 11 10 10 11 12 12 8 8 8 7 8 9 7 10 6 12 13 13 15 10 10 12 12 8 9 14 14 15 13
15 17 28 22 19 25 15 11 18 14 17 16 5 9 14 11 5 4 9 12 11 10 10 9 11 11 11 10 8 7 7 7 8 6 6 8 9 12 15 13 11 12 13 8 11 14 15 12 12
17 17 21 25 23 22 8 14 17 12 17 15 12 15 2 4 1 5 10 12 12 11 10 9 8 10 9 10 9 9 8 8 8 8 10 11 9 14 16 13 13 12 14 15 16 15 14 12 9
19 17 26 22 21 15 7 16 13 13 16 17 17 13 11 8 6 5 12 15 15 14 13 12 10 10 9 8 9 11 11 10 10 11 11 10 10 12 13 12 14 15 14 15 14 19 19 16 11
22 24 21 22 14 11 17 18 18 20 21 19 16 17 16 19 12 9 10 15 18 16 12 13 12 11 12 8 7 6 6 6 7 10 10 10 9 7 9 7 6 8 12 9 10 11 10 14 10
24 23 22 18 19 15 18 20 22 22 21 18 18 18 20 17 15 14 14 15 17 19 17 14 13 12 14 9 7 7 6 6 6 9 12 8 7 9 9 8 11 9 7 9 10 7 10 13 15
22 22 21 22 19 17 21 23 25 25 23 22 22 22 22 19 19 18 18 16 16 18 19 16 15 14 12 8 4 7 7 7 7 8 10 9 8 9 10 10 8 8 8 7 6 9 12 13 14
17 18 16 19 20 18 20 23 24 23 23 23 24 24 21 21 20 20 20 19 17 17 18 17 17 15 13 12 11 6 7 7 7 7 9 14 9 10 10 9 9 7 7 9 9 9 10 11 12
16 22 20 22 21 23 21 25 25 24 24 25 24 22 21 22 24 23 22 19 17 16 17 18 17 16 15 15 13 8 7 6 7 7 11 12 11 11 10 8 6 8 8 9 11 10 9 10 11
15 20 19 17 18 13 17 20 17 8 13 16 19 19 21 23 24 22 23 21 19 17 18 19 16 16 16 13 11 9 7 5 9 10 8 12 13 13 11 8 8 7 6 7 7 10 8 10 9
16 17 19 16 11 11 15 17 14 16 12 13 14 16 16 17 21 22 23 22 21 17 16 19 18 18 16 13 9 8 10 7 7 7 6 10 10 10 7 6 6 8 7 8 8 7 7 10 7
15 18 17 17 11 6 16 20 19 20 22 23 23 20 19 19 17 17 19 20 19 16 17 19 16 17 16 11 9 8 6 8 7 7 6 11 9 12 8 5 5 8 8 9 9 11 8 12 10
18 22 21 20 15 16 22 22 21 21 23 23 22 22 21 19 17 16 19 21 12 14 17 20 19 18 13 9 10 9 7 8 7 7 8 8 7 9 9 6 8 10 12 10 13 9 12 11 11
19 22 23 21 19 15 19 21 20 22 23 24 23 20 20 18 19 19 18 19 13 15 17 19 20 20 14 12 11 9 8 7 8 8 9 10 9 9 7 7 7 10 10 11 12 13 9 8 9
18 19 21 20 18 19 22 25 24 17 17 16 16 20 20 20 20 17 18 20 16 16 17 19 20 19 16 16 10 9 8 6 7 8 9 12 14 14 13 14 10 7 12 11 13 12 14 9 10
18 17 16 15 16 12 12 14 19 17 9 8 7 11 13 18 20 17 18 20 19 17 17 18 19 19 18 17 13 14 11 9 9 8 8 7 6 9 10 13 11 12 9 12 13 11 10 11 12
16 13 10 14 15 16 17 13 15 12 8 5 9 11 13 13 15 16 20 19 20 19 16 17 18 19 18 17 14 12 11 8 8 7 5 9 6 5 7 8 12 13 9 15 16 13 9 9 12
12 10 13 15 14 14 19 16 13 3 8 6 7 7 13 14 13 10 10 14 17 19 17 16 19 19 18 17 16 15 13 10 8 7 7 6 4 3 3 1 8 13 10 12 14 16 15 11 12
14 12 8 9 8 10 5 7 12 9 7 7 9 11 9 11 14 15 9 14 16 17 18 17 18 16 19 18 16 14 13 11 10 10 8 7 5 4 5 6 3 5 9 12 12 15 16 12 11
17 16 8 10 8 10 0 9 5 13 12 6 7 7 10 9 10 12 18 11 11 12 17 16 16 14 16 19 16 13 12 8 7 9 7 6 6 6 8 6 5 4 7 9 9 9 10 9 10
19 15 17 17 20 13 10 13 16 12 8 5 6 12 13 12 13 15 19 7 7 11 15 14 14 14 18 18 14 13 11 10 9 11 11 8 8 8 8 8 9 7 6 8 8 5 5 4 3
19 3 8 8 7 11 14 18 10 8 5 6 13 12 13 14 15 16 19 22 6 15 13 10 11 14 17 15 12 11 11 10 10 10 10 9 10 10 11 10 9 9 8 7 9 7 6 6 3
12 11 9 6 9 6 7 2 13 8 8 10 13 12 13 13 13 14 17 20 11 11 11 11 12 12 12 13 11 12 9 10 9 8 8 8 7 8 10 11 10 11 11 9 8 8 9 9 8
10 13 15 8 12 6 5 2 5 8 5 6 7 9 11 11 12 13 16 17 12 5 8 9 11 13 9 12 12 12 9 8 9 7 8 7 7 8 7 9 10 10 11 11 12 12 12 13 13
Wind_Direction
217 224 236 240 247 229 255 245 240 257 228 172 338 278 290 303 278 11 106 94 116 138 140 166 150 147 160 174 175 177 177 174 171 165 168 169 163 166 158 155 154 154 153 145 148 150 149 139 127
214 218 226 264 244 251 243 230 195 236 245 79 265 252 255 260 331 97 139 133 141 143 142 158 148 148 157 162 169 173 177 178 174 169 167 166 166 172 169 162 161 157 150 151 155 156 141 133 129
252 208 241 227 234 250 263 266 215 263 53 253 244 219 244 243 80 300 102 147 146 146 144 136 154 153 157 162 170 175 178 177 173 166 168 169 171 173 175 172 161 160 155 158 160 149 134 126 123
196 204 252 257 248 236 246 273 129 238 199 241 251 256 139 318 21 246 135 156 156 151 154 136 152 160 161 166 173 174 172 170 170 168 173 175 182 185 185 180 172 166 165 166 161 152 132 126 126
211 223 233 242 245 258 263 242 327 244 232 266 211 261 235 168 216 201 157 164 161 151 146 152 158 162 164 169 173 172 188 166 167 173 178 186 185 185 178 176 178 178 169 169 155 137 128 129 129
218 236 239 244 246 245 246 255 235 234 253 226 233 256 262 137 201 171 172 173 165 160 162 151 167 172 166 168 173 171 174 172 169 191 192 194 186 173 179 182 189 188 98 173 146 142 133 137 140
234 224 246 256 264 274 276 197 252 263 252 256 256 227 256 135 36 38 195 174 173 165 172 156 174 181 177 173 180 175 176 180 169 208 210 193 181 182 181 162 127 112 143 170 160 139 137 141 144
236 254 263 252 259 261 260 223 264 265 255 262 267 230 239 83 48 233 209 182 177 172 181 167 176 179 186 188 180 175 178 179 184 217 148 158 155 139 129 129 135 142 121 153 160 169 150 142 153
224 253 250 254 258 263 241 266 254 237 269 258 231 241 308 73 245 184 201 188 185 183 187 179 189 184 181 195 185 181 174 186 160 166 145 151 174 165 154 156 156 157 164 164 161 146 144 150 159
226 233 246 265 286 307 249 261 258 236 230 237 257 239 249 240 246 246 216 195 199 193 193 181 180 187 191 194 184 202 194 203 206 199 182 193 185 185 179 175 171 179 180 172 166 149 152 163 167
221 243 259 265 288 267 285 267 262 260 257 264 254 233 238 218 227 227 235 229 199 205 195 200 178 187 188 187 197 197 190 204 210 206 192 204 181 176 183 167 181 205 194 183 145 156 175 181 181
245 248 266 272 278 271 249 263 263 263 266 265 263 257 251 245 234 242 235 224 229 196 198 192 179 197 195 187 191 199 196 198 201 207 205 193 182 177 183 192 187 193 186 189 164 172 201 184 185
244 260 265 276 258 260 269 261 266 264 269 266 259 254 258 257 240 237 239 234 226 222 192 186 201 191 193 189 168 206 206 199 202 203 205 205 191 182 183 186 194 181 180 176 170 186 200 186 184
258 273 267 273 271 261 263 265 262 260 259 257 254 252 250 248 244 241 234 230 223 220 202 178 197 195 183 189 180 188 201 188 197 218 209 209 203 196 192 192 188 186 180 174 169 214 195 180 178
287 277 270 258 255 253 254 259 259 263 257 253 251 246 245 245 240 242 238 228 223 220 207 179 193 194 187 192 171 187 195 175 191 207 212 201 208 198 191 177 180 192 175 185 175 202 200 179 168
265 269 271 262 238 255 232 261 278 261 274 245 247 250 247 240 237 234 236 230 229 223 212 181 186 192 195 189 180 164 169 186 192 208 207 197 205 198 186 185 186 192 157 174 181 181 195 204 192
238 260 259 261 245 255 237 260 275 303 287 266 266 268 258 248 237 229 231 222 222 221 211 183 184 192 193 189 182 185 160 195 203 201 194 188 205 200 189 179 166 169 157 170 162 171 177 211 144
249 253 248 257 259 238 257 267 284 282 275 269 269 262 257 253 246 237 230 224 220 217 197 184 181 191 188 174 171 189 175 194 184 192 194 191 192 204 192 191 171 171 172 173 165 167 193 231 148
270 279 283 282 289 278 273 271 270 269 257 259 257 253 248 251 255 237 231 228 208 211 186 183 178 189 186 165 176 184 178 195 191 194 180 187 195 196 193 198 194 183 172 171 178 173 195 242 158
254 264 266 275 278 263 272 272 275 266 261 258 257 257 254 246 244 228 235 224 188 201 191 182 181 188 170 185 179 184 194 193 195 191 188 198 188 189 188 182 181 186 170 176 181 176 182 219 168
249 258 273 283 294 287 273 273 263 240 245 252 261 252 252 247 242 235 227 227 177 206 190 191 183 190 177 195 172 171 180 184 195 192 204 208 202 200 201 207 189 197 178 179 181 177 182 184 189
260 263 254 272 277 275 321 296 299 294 262 267 254 248 252 244 245 238 236 229 187 199 191 195 183 188 182 190 177 179 181 186 201 206 207 202 210 223 222 201 187 193 192 177 184 178 182 180 182
264 280 271 266 269 278 273 265 272 219 227 40 354 0 320 234 238 233 234 238 232 182 192 193 181 184 178 189 182 177 189 192 183 189 180 196 190 222 239 218 208 193 202 181 180 181 178 198 186
243 265 251 261 260 262 263 244 266 203 65 19 6 360 349 353 337 299 293 279 231 178 179 177 180 186 175 184 186 187 186 184 161 173 183 174 184 167 145 311 200 190 165 178 175 177 192 203 203
215 230 250 219 220 247 284 210 238 104 77 33 15 12 19 357 349 327 291 262 249 165 174 173 171 177 183 182 183 183 179 186 186 175 179 168 165 160 159 134 95 171 170 169 177 175 184 202 197
207 214 233 256 261 297 36 216 180 102 76 36 26 14 10 7 354 332 329 283 236 178 179 158 169 174 173 189 177 175 178 189 182 172 174 172 172 160 158 146 125 116 146 155 160 174 176 194 191
233 229 244 266 279 276 253 284 161 113 83 18 26 18 13 7 6 345 337 289 224 175 136 158 169 177 180 187 170 167 183 173 184 166 165 171 171 175 161 157 156 143 144 145 141 137 141 124 161
240 289 208 215 244 234 242 227 144 112 44 358 31 17 13 14 10 357 346 332 230 121 143 157 178 181 186 174 162 168 176 176 178 175 177 177 174 170 177 164 164 157 151 148 150 151 142 153 164
202 218 223 255 262 284 293 104 98 103 27 11 24 22 23 16 16 4 349 341 68 124 147 163 184 170 190 161 169 168 175 157 164 163 181 187 180 176 173 171 175 169 165 165 163 170 173 186 190
258 238 228 231 215 241 292 3 84 42 23 32 21 21 21 29 25 21 3 353 357 101 162 182 153 160 179 177 173 168 166 151 153 171 158 178 180 161 186 169 178 175 176 175 180 180 183 189 195